TimeMDT,TemperatureF,Dew PointF,Humidity,Sea Level PressureIn,VisibilityMPH,Wind Direction,Wind SpeedMPH,Gust SpeedMPH,PrecipitationIn,Events,Conditions,WindDirDegrees,DateUTC
12:58 AM,54.3,27.5,36,29.66,10.0,NW,19.6,-,N/A,,Clear,310,2013-05-22 06:58:00
1:58 AM,50.9,33.3,51,29.67,10.0,NW,23.0,-,N/A,,Clear,310,2013-05-22 07:58:00
2:58 AM,49.3,30.0,48,29.68,10.0,NW,27.6,-,N/A,,Clear,320,2013-05-22 08:58:00
3:58 AM,46.8,21.6,37,29.72,10.0,NW,23.0,-,N/A,,Clear,320,2013-05-22 09:58:00
4:58 AM,44.8,22.6,42,29.73,10.0,NW,23.0,29.9,N/A,,Clear,320,2013-05-22 10:58:00
5:58 AM,43.2,24.6,48,29.74,10.0,NNW,18.4,-,N/A,,Clear,330,2013-05-22 11:58:00
6:58 AM,40.8,25.5,55,29.81,10.0,NW,13.8,-,N/A,,Clear,310,2013-05-22 12:58:00
7:58 AM,45.3,24.3,44,29.84,10.0,NW,19.6,-,N/A,,Clear,320,2013-05-22 13:58:00
8:58 AM,47.3,23.5,39,29.87,10.0,WNW,24.2,-,N/A,,Mostly Cloudy,300,2013-05-22 14:58:00
9:53 AM,50.0,21.2,32,29.90,10.0,NW,23.0,32.2,N/A,,Overcast,310,2013-05-22 15:53:00
9:58 AM,50.2,21.6,33,29.87,10.0,NW,25.3,31.1,N/A,,Overcast,320,2013-05-22 15:58:00
10:58 AM,48.2,22.8,37,29.90,10.0,NW,24.2,32.2,N/A,,Mostly Cloudy,310,2013-05-22 16:58:00
11:43 AM,48.2,23.0,37,29.93,10.0,NW,18.4,27.6,N/A,,Overcast,310,2013-05-22 17:43:00
11:48 AM,50.0,23.0,35,29.93,10.0,NNW,12.7,27.6,N/A,,Overcast,330,2013-05-22 17:48:00
11:58 AM,50.5,22.1,33,29.91,10.0,WNW,18.4,26.5,N/A,,Mostly Cloudy,300,2013-05-22 17:58:00
12:03 PM,51.8,21.2,30,29.92,10.0,NW,23.0,26.5,N/A,,Scattered Clouds,320,2013-05-22 18:03:00
12:39 PM,51.8,19.4,28,29.93,10.0,WNW,18.4,26.5,N/A,,Partly Cloudy,300,2013-05-22 18:39:00
12:58 PM,53.4,18.3,25,29.92,10.0,NNW,15.0,27.6,N/A,,Partly Cloudy,340,2013-05-22 18:58:00
1:36 PM,53.6,15.8,22,29.93,10.0,NNW,15.0,25.3,N/A,,Partly Cloudy,330,2013-05-22 19:36:00
1:58 PM,54.3,14.4,21,29.93,10.0,NNW,13.8,28.8,N/A,,Partly Cloudy,330,2013-05-22 19:58:00
2:46 PM,55.4,12.2,18,29.93,10.0,North,12.7,21.9,N/A,,Clear,350,2013-05-22 20:46:00
2:58 PM,54.5,12.0,19,29.92,10.0,NNW,10.4,17.3,N/A,,Clear,330,2013-05-22 20:58:00
3:16 PM,57.2,10.4,16,29.93,10.0,WNW,15.0,21.9,N/A,,Partly Cloudy,290,2013-05-22 21:16:00
3:20 PM,57.2,10.4,16,29.92,10.0,NW,18.4,21.9,N/A,,Partly Cloudy,310,2013-05-22 21:20:00
3:28 PM,57.2,10.4,16,29.93,10.0,NW,16.1,20.7,N/A,,Clear,320,2013-05-22 21:28:00
3:51 PM,57.2,8.6,14,29.92,10.0,West,13.8,26.5,N/A,,Clear,270,2013-05-22 21:51:00
3:58 PM,56.8,9.3,15,29.90,10.0,NW,9.2,26.5,N/A,,Clear,320,2013-05-22 21:58:00
4:18 PM,57.2,6.8,13,29.90,10.0,NNW,17.3,21.9,N/A,,Clear,340,2013-05-22 22:18:00
4:22 PM,57.2,6.8,13,29.90,10.0,NW,16.1,21.9,N/A,,Clear,320,2013-05-22 22:22:00
4:23 PM,57.2,6.8,13,29.90,10.0,NW,16.1,21.9,N/A,,Clear,310,2013-05-22 22:23:00
4:24 PM,57.2,6.8,13,29.90,10.0,WNW,16.1,21.9,N/A,,Clear,300,2013-05-22 22:24:00
4:58 PM,57.9,3.9,11,29.89,10.0,NNW,16.1,26.5,N/A,,Clear,330,2013-05-22 22:58:00
5:45 PM,59.0,3.2,11,29.89,10.0,NNW,13.8,23.0,N/A,,Clear,340,2013-05-22 23:45:00
5:58 PM,58.3,4.1,11,29.88,10.0,North,11.5,23.0,N/A,,Clear,350,2013-05-22 23:58:00
6:08 PM,59.0,3.2,11,29.89,10.0,NW,15.0,24.2,N/A,,Clear,310,2013-05-23 00:08:00
6:58 PM,58.8,0.7,10,29.88,10.0,NW,19.6,26.5,N/A,,Clear,310,2013-05-23 00:58:00
7:58 PM,57.6,3.6,11,29.87,10.0,NW,16.1,-,N/A,,Clear,310,2013-05-23 01:58:00
8:58 PM,54.9,8.1,15,29.88,10.0,NNW,11.5,-,N/A,,Clear,340,2013-05-23 02:58:00
9:58 PM,51.6,9.5,18,29.90,10.0,North,10.4,-,0.00,,Clear,360,2013-05-23 03:58:00
10:58 PM,47.3,9.5,22,29.93,10.0,North,5.8,-,N/A,,Clear,360,2013-05-23 04:58:00
11:58 PM,46.2,9.5,23,29.93,10.0,NNE,3.5,-,N/A,,Clear,20,2013-05-23 05:58:00